131  
ASUS41 KOKX 300918  
RWROKX  
 
REGIONAL WEATHER ROUNDUP  
NATIONAL WEATHER SERVICE NEW YORK NY  
500 AM EDT TUE JUN 30 2015  
 
NOTE: "FAIR" INDICATES FEW OR NO CLOUDS BELOW 12,000 FEET WITH NO  
SIGNIFICANT WEATHER AND/OR S TO VISIBILITY
.  
 
NYZ071-072-176-178-NJZ106-104-301000-  
NEW YORK CITY METRO AREA  
 
 
CITY SKY/WX TMP DP RH WIND PRES REMARKS
 
CENTRAL PARK CLEAR 69 57 65 CALM 29.98S  
LAGUARDIA APRT PTCLDY 69 58 67 CALM 29.94F  
KENNEDY INTL MOCLDY 68 62 81 CALM 29.96S  
NEWARK/LIBERTY MOCLDY 67 59 75 CALM 29.95S  
BRNX BOT. GARD N/A 63 57 82 CALM 29.97R  
TETERBORO CLEAR 64 57 78 CALM 29.94F  

 
 
NYZ177-179-078>081-301000-  
LONG ISLAND NEW YORK  
 
CITY SKY/WX TMP DP RH WIND PRES REMARKS
 
FARMINGDALE CLEAR 64 61 90 CALM 29.96S  
ISLIP CLEAR 66 63 90 SW3 29.95S  
SHIRLEY CLEAR 66 63 90 S6 29.97S  
WESTHAMPTON CLEAR 61 60 97 CALM 29.98S FOG  
MONTAUK POINT N/A 67 62 84 S3 29.98F  

 
 
NYZ052-065-067-301000-  
HUDSON VALLEY  
 
CITY SKY/WX TMP DP RH WIND PRES REMARKS
 
WHITE PLAINS CLEAR 61 58 90 CALM 29.95F  
NEWBURGH PTCLDY 64 63 94 CALM 29.96S  
MONTGOMERY MOCLDY 61 59 93 N3 29.95S  
POUGHKEEPSIE CLOUDY 63 59 87 N3 29.95S  
ALBANY MOCLDY 58 55 90 CALM 29.97R  

 
 
NJZ001-105-106-008-010-013-015-019>022-104-301000-  
NEW JERSEY  
 
CITY SKY/WX TMP DP RH WIND PRES REMARKS
 
NEWARK/LIBERTY MOCLDY 67 59 75 CALM 29.95S  
TETERBORO CLEAR 64 57 78 CALM 29.94F  
CALDWELL CLOUDY 60 57 89 CALM 29.96S  
MORRISTOWN CLOUDY 61 57 88 CALM 29.95S  
SOMERVILLE CLOUDY 59 56 89 CALM 29.94R  
SUSSEX CLOUDY 61 59 93 CALM 29.95F  
ANDOVER N/A 59 58 96 CALM 29.96S  
TRENTON CLEAR 62 58 86 CALM 29.94S  
MILLVILLE PTCLDY 62 61 96 CALM 29.95S  
ATLANTIC CITY CLEAR 60 58 92 SE3 29.96R  
WRIGHTSTOWN CLEAR 59 59 99 CALM 29.93S  
TOMS RIVER CLEAR 57 55 94 CALM 29.96S  
BELMAR CLEAR 64 57 77 S5 29.95S  

 
 
PAZ047>061-062-071-301000-  
EASTERN PENNSYLVANIA  
 
CITY SKY/WX TMP DP RH WIND PRES REMARKS
 
PHILADELPHIA MOCLDY 68 61 78 CALM 29.94S  
ALLENTOWN CLOUDY 63 59 87 NE5 29.94S  
SCRANTON LGT RAIN 65 60 84 NE7 29.93F  

 
 
CTZ002-004>006-009-010-012-RIZ004-006-007-MAZ004-011-015-301000-  
SOUTHERN NEW ENGLAND  
IN CT  
 
CITY SKY/WX TMP DP RH WIND PRES REMARKS
 
BRADLEY INTL MOCLDY 59 57 93 N3 29.96S  
HARTFORD CLOUDY 62 60 93 SE9 29.95F  
DANBURY CLOUDY 63 57 81 CALM 29.97S  
WTRBRY/OXFORD CLOUDY 63 55 77 CALM 29.98S  
BRIDGEPORT CLEAR 64 59 83 S3 29.95F  
MERIDEN CLOUDY 62 59 90 CALM 29.96S  
NEW HAVEN CLEAR 60 58 92 CALM 29.95F  
CHESTER FAIR 63 61 94 S3 29.98R  
GROTON CLOUDY 61 59 93 CALM 29.96F  
WILLIMANTIC CLOUDY 57 55 93 CALM 29.97F FOG  
 
IN RI  
 
CITY SKY/WX TMP DP RH WIND PRES REMARKS
 
PROVIDENCE PTCLDY 60 58 92 CALM 29.98S  
BLOCK ISLAND PTCLDY 64 61 88 SW8 29.98S  
WESTERLY MOCLDY 59 57 93 N3 29.98S  
 
IN MA  
 
CITY SKY/WX TMP DP RH WIND PRES REMARKS
 
BOSTON CLEAR 60 58 92 SW5 29.97S  
WORCESTER CLEAR 57 54 89 SW5 29.98S  
WESTFIELD CLOUDY 57 55 93 CALM 29.97F  
PROVINCETOWN CLEAR 57 3 11 SW6 29.98S  
NANTUCKET CLEAR 62 60 93 SW7 30.00R FOG  

 
 
ANZ330-335-338-340-345-350-353-355-301000-  
COASTAL MARINE OBSERVATIONS  
 
 
STATION/POSITION TIME SKY/WX TEMP WIND PRES VSBY WAVE
 
AIR SEA DIR/SP/G HT/PER  
(UTC) (F) (DEG/KT/KT) (MB) (MI) (FT/S)  
NY HARB ENTRANCE 0850 68 68 180/ 6/ 8 1013.9 2/ 7  
4S FIRE IS 0803 66 N/A 3/ 8  
20S FIRE ISLAND 0850 67 66 170/ 8/ 8 1014.4 3/ 8  
GREAT SOUTH BAY 0800 69 72 240/ 10/ 12 N/A  
23SW MTP 0850 66 66 210/ 6/ 6 1014.7 4/ 8  
HUDSON CANYON NOT AVBL  
KINGS POINT 0800 68 66 CALM / 1 1013.8  
CENTRAL LI SOUND NOT AVBL  
EASTERN LI SOUND 0800 63 120/ 2/ 4 N/A  
ROBBINS REEF 0800 69 310/ 4/ 5 1013.2  

 
 
>>>>>>>>>>>>>>>>>>>>>>>>>>>> KEY <<<<<<<<<<<<<<<<<<<<<<<<<<<  
> <  
> SKY/WX - SKY CONDITION/PRESENT WEATHER <  
> TMP - TEMPERATURE IN FAHRENHEIT <  
> DP - DEWPOINT IN FAHRENHEIT <  
> RH - RELATIVE HUMIDITY IN PERCENT <  
> WIND - DIRECTION AND SPEED IN MPH <  
> PRES - MEAN SEA LEVEL PRESSURE IN INCHES OF HG <  
> WCI - WIND CHILL INDEX <  
> VSB - VISIBILITY IN MILES <  
> HX - HEAT INDEX <  
> TC - TEMPERATURE IN CELSIUS <  
> VRB - VARIABLE WIND DIRECTION <  
> <  
>>>>>>>>>>>>>>>>>>>>>>>>>>>> KEY <<<<<<<<<<<<<<<<<<<<<<<<<<<  
 
CLICK HERE TO GO TO PREVIOUS BULLETINS.

The Nexlab NY Page
The Nexlab NJ Page
The Nexlab CT Page Main Text Page